Home > Weather > Brades > Past weeks

Flag for Montserrat Past Weather in Brades, Montserrat — Yesterday and Last 2 Weeks

Now
81 °F

Sprinkles. Passing clouds.


Feels Like: 87 °F
Forecast: 81 / 85 °F
Wind: 12 mph from East

Location: Vc Bird International Antigua Airport

Current Time: Jul 1, 2016 at 11:53:21 PM

Latest Report: Jul 1, 2016 at 11:00 PM


Visibility: N/A

Pressure: 30.07 "Hg

Humidity: 89%

Dew Point: 77 °F

Location of BradesLocation

Past Weather in Brades — Graph

°F

Brades Temperature Yesterday

Maximum temperature yesterday: 86 °F (at 11:00 AM)
Minimum temperature yesterday: 77 °F (at 11:00 PM)
Average temperature yesterday: 82 °F

High & Low Weather Summary for the Past Weeks

 TemperatureHumidityPressure
High88 °F (Jun 17, 2:00 PM)94% (Jun 19, 7:00 PM)30.12 "Hg (Jun 19, 7:00 PM)
Low73 °F (Jun 19, 8:00 PM)59% (Jun 28, 11:00 AM)29.98 "Hg (Jun 25, 2:00 PM)
Average82 °F76%30.04 "Hg
* Reported Jun 16 10:00 PM — Jul 1 10:00 PM, Brades, Weather by CustomWeather, © 2016

Note: Actual official high and low records may vary slightly from our data, if they occured in-between our weather recording intervals... More about our weather records

Advertising

Brades Weather History for the Previous 24 Hours

Scroll right to see more
 ConditionsComfort  
Time TempWeatherWind HumidityBarometerVisibility
10:00 PM
Fri, Jul 1
81 °FPassing clouds.8 mph89%30.07 "HgN/A
9:00 PM81 °FRain showers. Passing clouds.9 mph89%30.07 "HgN/A
8:00 PM81 °FPassing clouds.10 mph89%30.04 "HgN/A
7:00 PM82 °FPassing clouds.8 mph84%30.04 "HgN/A
6:00 PM82 °FScattered clouds.12 mph84%30.01 "HgN/A
5:00 PM82 °FPassing clouds.10 mph79%30.01 "HgN/A
4:00 PM84 °FScattered showers. Scattered clouds.12 mph79%30.01 "HgN/A
3:00 PM84 °FScattered clouds.13 mph74%30.01 "HgN/A
2:00 PM84 °FSprinkles. Scattered clouds.13 mph79%30.04 "HgN/A
1:00 PM86 °FPassing clouds.13 mph75%30.04 "HgN/A
12:00 PM86 °FScattered clouds.15 mph75%30.07 "HgN/A
11:00 AM86 °FScattered clouds.13 mph75%30.07 "HgN/A
10:00 AM84 °FScattered clouds.14 mph79%30.07 "HgN/A
9:00 AM84 °FScattered clouds.16 mph79%30.07 "HgN/A
8:00 AM82 °FScattered clouds.14 mph79%30.04 "HgN/A
7:00 AM82 °FScattered clouds.12 mph79%30.04 "HgN/A
6:00 AM81 °FScattered clouds.13 mph84%30.04 "HgN/A
5:00 AM81 °FPassing clouds.14 mph84%30.01 "HgN/A
4:00 AM79 °FPassing clouds.12 mph89%30.01 "HgN/A
3:00 AM77 °FPassing clouds.12 mph89%30.01 "HgN/A
2:00 AM81 °FRain showers. Partly cloudy.13 mph84%30.04 "HgN/A
1:00 AM81 °FPartly cloudy.13 mph84%30.04 "HgN/A
12:00 AM79 °FPassing clouds.10 mph89%30.12 "HgN/A
11:00 PM
Thu, Jun 30
77 °FRain showers. Passing clouds.10 mph89%30.07 "HgN/A
Weather by CustomWeather, © 2016

See weather overviewHow to use our weather pages